Regional Weather Roundup
Issued by NWS

Home | Current Version | Previous Version | Graphics & Text | Print | Product List | Glossary On
Versions: 1 2 3 4 5 6 7 8 9 10 11 12 13 14 15 16 17 18 19 20 21 22 23 24 25 26 27 28 29 30 31 32 33 34 35 36 37 38 39 40 41 42 43 44 45 46 47 48 49 50
000
ASUS45 KSLC 231810
RWRUT

UTAH REGIONAL WEATHER ROUNDUP
NATIONAL WEATHER SERVICE SALT LAKE CITY UT
1100 AM MST SUN NOV 23 2014

UTZ001>011-023>025-231900-

NORTHERN UTAH

CITY           SKY/WX    TMP DP  RH WIND       PRES   REMARKS
BRIGHAM CITY   SUNNY     38  22  54 N9        30.24R WCI  31
HILL AFB         N/A     35  26  71 W13       30.22S WCI  26
LOGAN          MOSUNNY   35  26  69 S3        30.21R
OGDEN          SUNNY     37  25  61 NW10      30.22R WCI  30
PROVO AIRPORT  PTSUNNY   34  27  75 NW8       30.24R WCI  27
SALT LAKE CITY MOSUNNY   37  24  59 NW13      30.24R WCI  29
VERNAL         MOSUNNY   38  16  40 NW20G25   30.04R WCI  28
WENDOVER       SUNNY     39  18  41 NW23G30   30.26S WCI  29
HEBER CITY     MOSUNNY   32  25  74 CALM      30.15S
WEST JORDAN    PTSUNNY   34  28  80 CALM      30.24R

$$

UTZ012>022-026-027-231900-

SOUTHERN/CENTRAL UTAH

CITY           SKY/WX    TMP DP  RH WIND       PRES   REMARKS
BLANDING       SUNNY     37  13  36 NW31G44   30.04R WCI  24
BRYCE CANYON   MOSUNNY   28  11  48 N21G28    30.17R WCI  15
CEDAR CITY     SUNNY     37  19  48 N16G25    30.25R WCI  28
DELTA          SUNNY     36  22  58 NW22      30.27S WCI  24
MILFORD        SUNNY     39  20  46 NE14      30.28R WCI  31
MOAB/CYNLANDS  SUNNY     42  16  34 W21       30.03S
PRICE          MOSUNNY   34  17  50 NW20G26   30.08R WCI  23
ST GEORGE      PTCLDY    54  18  24 E7        30.28S
KANAB          SUNNY     45   5  19 N12G18    30.25R

$$

REGIONAL REPORTS     COLORADO/ARIZONA

CITY           SKY/WX    TMP DP  RH WIND       PRES   REMARKS
CRAIG, CO      LGT SNOW  29  25  85 W17       29.95S FOG     WCI  17
GRAND JUNCTION CLOUDY    35  27  72 W13       30.01R WCI  26
RIFLE          CLOUDY    31  29  92 SW5       29.97S WCI  26
MONTROSE       PTSUNNY   33  25  72 NW16G25   29.98S WCI  23
CORTEZ         CLOUDY    36  17  46 NW14G21   29.99R WCI  27
PAGE, AZ       NOT AVBL
GRAND CANYON   SUNNY     40   1  19 N13G23    30.16F WCI  32
KINGMAN        SUNNY     53  14  21 N20G31    30.23R
FLAGSTAFF      SUNNY     41 -11  10 N18G31    30.14R

$$

REGIONAL REPORTS    NEVADA/IDAHO/WYOMING

CITY           SKY/WX    TMP DP  RH WIND       PRES   REMARKS
LAS VEGAS, NV  MOSUNNY   59  15  18 N10G23    30.25R
ELY            SUNNY     33  25  72 N7        30.31R WCI  27
ELKO           PTSUNNY   35  24  64 W9        30.35R WCI  28
POCATELLO, ID  MOSUNNY   34  28  79 SW24      30.22R WCI  21
BURLEY         LGT RAIN  36  24  62 W26G36    30.24R WCI  24
EVANSTON, WY   MOSUNNY   27  18  69 NW14      30.10R WCI  16
ROCK SPRINGS   MOSUNNY   29  14  53 NW18G31   29.99S WCI  16
KEMMERER       SUNNY     27  19  74 NW25G31   30.05R WCI  11

$$


USA.gov is the U.S. government's official web portal to all federal, state and local government web resources and services.